Humboldt, Iowa, United States (50548)
Lat: 42.72N, Lon: 94.22W
Wx Zone: IAZ024
Local Info
Past Weather Observations for Saturday, April 12, 2014

NOTE: This archive is for the closest National Weather Service station to Humboldt. Information may differ from the station used for current weather conditions.

Time Weather Temperature Dewpoint Humidity Pressure Winds Precip Visibility
23:55
Mostly Cloudy
50°F / 10°C 46°F / 8°C 88% 29.68 in
(1005 mb)
NNE 8.1 mph
(NNE 13 kph)
- 10SM
23:35
Partly Cloudy
52°F / 11°C 48°F / 9°C 88% 29.65 in
(1004 mb)
N 15 mph
(N 24 kph)
- 10SM
23:15
Mostly Cloudy
54°F / 12°C 48°F / 9°C 82% 29.65 in
(1004 mb)
NNE 10.4 mph
(NNE 17 kph)
- 9SM
22:55
Mostly Cloudy
54°F / 12°C 52°F / 11°C 94% 29.65 in
(1004 mb)
N 9.2 mph
(N 15 kph)
0.04 in
(1.02 mm)
8SM
22:35
Overcast
54°F / 12°C 52°F / 11°C 94% 29.62 in
(1003 mb)
N 6.9 mph
(N 11 kph)
0.04 in
(1.02 mm)
8SM
22:15
Mostly Cloudy
Thunder Storms
54°F / 12°C 50°F / 10°C 88% 29.62 in
(1003 mb)
N 8.1 mph
(N 13 kph)
0.03 in
(0.76 mm)
6SM
21:55
Overcast
Thunder Storms
55°F / 13°C 48°F / 9°C 77% 29.65 in
(1004 mb)
N 5.8 mph
(N 9 kph)
0.03 in
(0.76 mm)
8SM
21:35
Overcast
Thunder Storms
55°F / 13°C 50°F / 10°C 82% 29.65 in
(1004 mb)
NNE 4.6 mph
(NNE 7 kph)
- 9SM
21:15
Overcast
Thunder Storms
57°F / 14°C 48°F / 9°C 72% 29.62 in
(1003 mb)
N 8.1 mph
(N 13 kph)
- 10SM
20:55
Mostly Cloudy
Thunder Storms
57°F / 14°C 48°F / 9°C 72% 29.62 in
(1003 mb)
NNE 12.7 mph
(NNE 20 kph)
- 10SM
20:35
Mostly Cloudy
Thunder Storms
57°F / 14°C 50°F / 10°C 77% 29.56 in
(1001 mb)
NE 16.1 mph
(NE 26 kph)
- 10SM
20:15
Mostly Cloudy
Thunder Storms
59°F / 15°C 50°F / 10°C 72% 29.59 in
(1002 mb)
NE 18.4 mph
(NE 30 kph)
- 10SM
19:55
Overcast
59°F / 15°C 50°F / 10°C 72% 29.59 in
(1002 mb)
NNE 16.1 mph
(NNE 26 kph)
- 10SM
19:35
Partly Cloudy
61°F / 16°C 52°F / 11°C 72% 29.59 in
(1002 mb)
NE 15 mph
(NE 24 kph)
- 10SM
19:15
Clear
63°F / 17°C 52°F / 11°C 68% 29.56 in
(1001 mb)
NE 16.1 mph
(NE 26 kph)
- 10SM
18:55
Partly Cloudy
63°F / 17°C 52°F / 11°C 68% 29.56 in
(1001 mb)
NE 17.3 mph
(NE 28 kph)
- 10SM
18:35
Mostly Cloudy
66°F / 19°C 54°F / 12°C 64% 29.56 in
(1001 mb)
NNE 16.1 mph
(NNE 26 kph)
- 10SM
18:15
Mostly Cloudy
75°F / 24°C 54°F / 12°C 47% 29.56 in
(1001 mb)
NE 12.7 mph
(NE 20 kph)
- 10SM
17:55
Mostly Cloudy
Thunder Storms
77°F / 25°C 54°F / 12°C 44% 29.56 in
(1001 mb)
NNW 3.5 mph
(NNW 6 kph)
- 10SM
17:35
Partly Cloudy
77°F / 25°C 54°F / 12°C 44% 29.56 in
(1001 mb)
NNW 4.6 mph
(NNW 7 kph)
- 10SM
17:15
Clear
77°F / 25°C 54°F / 12°C 44% 29.56 in
(1001 mb)
NNW 4.6 mph
(NNW 7 kph)
- 10SM
16:55
Clear
79°F / 26°C 54°F / 12°C 42% 29.56 in
(1001 mb)
N 4.6 mph
(N 7 kph)
- 10SM
16:35
Clear
79°F / 26°C 54°F / 12°C 42% 29.56 in
(1001 mb)
W 5.8 mph
(W 9 kph)
- 10SM
16:15
Clear
79°F / 26°C 54°F / 12°C 42% 29.56 in
(1001 mb)
SW 5.8 mph
(SW 9 kph)
- 10SM
15:55
Clear
79°F / 26°C 54°F / 12°C 42% 29.56 in
(1001 mb)
SSW 9.2 mph
(SSW 15 kph)
- 10SM
15:35
Clear
79°F / 26°C 54°F / 12°C 42% 29.59 in
(1002 mb)
SSW 11.5 mph
(SSW 19 kph)
- 10SM
15:15
Clear
79°F / 26°C 54°F / 12°C 42% 29.56 in
(1001 mb)
SW 11.5 mph
(SW 19 kph)
- 10SM
14:55
Mostly Cloudy
79°F / 26°C 54°F / 12°C 42% 29.59 in
(1002 mb)
Calm - 10SM
14:35
Mostly Cloudy
81°F / 27°C 54°F / 12°C 39% 29.59 in
(1002 mb)
WNW 8.1 mph
(WNW 13 kph)
- 10SM
14:15
Partly Cloudy
82°F / 28°C 55°F / 13°C 40% 29.56 in
(1001 mb)
NW 6.9 mph
(NW 11 kph)
- 10SM
13:55
Partly Cloudy
82°F / 28°C 55°F / 13°C 40% 29.59 in
(1002 mb)
SSW 10.4 mph
(SSW 17 kph)
- 10SM
13:35
Partly Cloudy
81°F / 27°C 55°F / 13°C 42% 29.59 in
(1002 mb)
SSW 11.5 mph
(SSW 19 kph)
- 10SM
13:15
Partly Cloudy
81°F / 27°C 55°F / 13°C 42% 29.59 in
(1002 mb)
W 11.5 mph
(W 19 kph)
- 10SM
12:55
Clear
79°F / 26°C 55°F / 13°C 45% 29.62 in
(1003 mb)
SSW 13.8 mph
(SSW 22 kph)
- 10SM
12:35
Clear
79°F / 26°C 55°F / 13°C 45% 29.62 in
(1003 mb)
SSW 18.4 mph
(SSW 30 kph)
- 10SM
12:15
Clear
77°F / 25°C 55°F / 13°C 47% 29.62 in
(1003 mb)
SSW 20.7 mph
(SSW 33 kph)
- 10SM
11:55
Clear
75°F / 24°C 55°F / 13°C 50% 29.62 in
(1003 mb)
SSW 16.1 mph
(SSW 26 kph)
- 10SM
11:35
Clear
75°F / 24°C 57°F / 14°C 54% 29.62 in
(1003 mb)
SW 19.6 mph
(SW 32 kph)
- 10SM
11:15
Clear
75°F / 24°C 57°F / 14°C 54% 29.65 in
(1004 mb)
SW 19.6 mph
(SW 32 kph)
- 10SM
10:55
Clear
73°F / 23°C 57°F / 14°C 57% 29.65 in
(1004 mb)
SW 19.6 mph
(SW 32 kph)
- 10SM
10:35
Clear
73°F / 23°C 55°F / 13°C 53% 29.65 in
(1004 mb)
SW 23 mph
(SW 37 kph)
- 10SM
10:15
Clear
70°F / 21°C 54°F / 12°C 57% 29.65 in
(1004 mb)
SW 18.4 mph
(SW 30 kph)
- 10SM
09:55
Clear
66°F / 19°C 52°F / 11°C 60% 29.68 in
(1005 mb)
SW 18.4 mph
(SW 30 kph)
- 10SM
09:35
Clear
66°F / 19°C 52°F / 11°C 60% 29.68 in
(1005 mb)
SW 23 mph
(SW 37 kph)
- 10SM
09:15
Clear
66°F / 19°C 48°F / 9°C 52% 29.68 in
(1005 mb)
S 25.3 mph
(S 41 kph)
- 10SM
08:55
Clear
64°F / 18°C 48°F / 9°C 56% 29.68 in
(1005 mb)
SSE 23 mph
(SSE 37 kph)
- 10SM
08:35
Clear
64°F / 18°C 46°F / 8°C 52% 29.68 in
(1005 mb)
S 23 mph
(S 37 kph)
- 10SM
08:15
Clear
63°F / 17°C 45°F / 7°C 52% 29.68 in
(1005 mb)
S 18.4 mph
(S 30 kph)
- 10SM
07:55
Clear
63°F / 17°C 43°F / 6°C 49% 29.68 in
(1005 mb)
S 16.1 mph
(S 26 kph)
- 10SM
07:35
Partly Cloudy
59°F / 15°C 39°F / 4°C 48% 29.71 in
(1006 mb)
S 9.2 mph
(S 15 kph)
- 10SM
07:15
Partly Cloudy
57°F / 14°C 37°F / 3°C 48% 29.71 in
(1006 mb)
SSE 11.5 mph
(SSE 19 kph)
- 10SM
06:55
Partly Cloudy
57°F / 14°C 37°F / 3°C 48% 29.71 in
(1006 mb)
SSE 11.5 mph
(SSE 19 kph)
- 10SM
06:35
Partly Cloudy
57°F / 14°C 36°F / 2°C 44% 29.71 in
(1006 mb)
SSE 12.7 mph
(SSE 20 kph)
- 10SM
06:15
Partly Cloudy
57°F / 14°C 36°F / 2°C 44% 29.71 in
(1006 mb)
SSE 5.8 mph
(SSE 9 kph)
- 10SM
05:55
Clear
57°F / 14°C 36°F / 2°C 44% 29.71 in
(1006 mb)
SE 12.7 mph
(SE 20 kph)
- 10SM
05:35
Partly Cloudy
57°F / 14°C 36°F / 2°C 44% 29.68 in
(1005 mb)
SSE 12.7 mph
(SSE 20 kph)
- 10SM
05:15
Partly Cloudy
57°F / 14°C 36°F / 2°C 44% 29.71 in
(1006 mb)
SSE 13.8 mph
(SSE 22 kph)
- 10SM
04:55
Mostly Cloudy
57°F / 14°C 37°F / 3°C 48% 29.74 in
(1007 mb)
SSE 13.8 mph
(SSE 22 kph)
- 10SM
04:35
Overcast
59°F / 15°C 37°F / 3°C 45% 29.74 in
(1007 mb)
SSE 11.5 mph
(SSE 19 kph)
- 10SM
04:15
Overcast
61°F / 16°C 37°F / 3°C 42% 29.77 in
(1008 mb)
SSE 6.9 mph
(SSE 11 kph)
- 10SM
03:55
Overcast
61°F / 16°C 37°F / 3°C 42% 29.77 in
(1008 mb)
SSE 6.9 mph
(SSE 11 kph)
- 10SM
03:35
Mostly Cloudy
59°F / 15°C 37°F / 3°C 45% 29.77 in
(1008 mb)
SSE 11.5 mph
(SSE 19 kph)
- 10SM
03:15
Overcast
57°F / 14°C 37°F / 3°C 48% 29.77 in
(1008 mb)
SSE 12.7 mph
(SSE 20 kph)
- 10SM
02:55
Overcast
57°F / 14°C 36°F / 2°C 44% 29.8 in
(1009 mb)
S 15 mph
(S 24 kph)
- 10SM
02:35
Partly Cloudy
61°F / 16°C 34°F / 1°C 36% 29.8 in
(1009 mb)
SSE 13.8 mph
(SSE 22 kph)
- 10SM
02:15
Partly Cloudy
61°F / 16°C 34°F / 1°C 36% 29.77 in
(1008 mb)
S 16.1 mph
(S 26 kph)
- 10SM
01:55
Overcast
59°F / 15°C 34°F / 1°C 39% 29.8 in
(1009 mb)
S 13.8 mph
(S 22 kph)
- 10SM
01:35
Mostly Cloudy
59°F / 15°C 34°F / 1°C 39% 29.8 in
(1009 mb)
S 15 mph
(S 24 kph)
- 10SM
01:15
Mostly Cloudy
57°F / 14°C 34°F / 1°C 41% 29.8 in
(1009 mb)
S 13.8 mph
(S 22 kph)
- 10SM
00:55
Partly Cloudy
57°F / 14°C 34°F / 1°C 41% 29.83 in
(1010 mb)
S 11.5 mph
(S 19 kph)
- 10SM
00:35
Partly Cloudy
57°F / 14°C 34°F / 1°C 41% 29.83 in
(1010 mb)
S 11.5 mph
(S 19 kph)
- 10SM
00:15
Clear
57°F / 14°C 32°F / 0°C 39% 29.83 in
(1010 mb)
S 10.4 mph
(S 17 kph)
- 10SM
Time Weather Temperature Dewpoint Humidity Pressure Winds Precip Visibility


Weather for websites

WeatherForYou.com, LLC is not responsible for any damages or problems caused by this service. Current weather conditions are obtained from the closest station including government and personal stations which may have varying degrees of accuracy. Weather forecasts are derived from the NOAA NDFD. Like all things, this site belongs to Jesus Christ... He just trusts me to maintain it. If you have any questions or comments email webmaster@weatherforyou.com

Copyright © 2014, WeatherForYou.com LLC. All rights reserved.